Temperature
13 13 12 12 12 12 12 12 12 12 12 12 12 12 12 12 12 12 12 12 12 12 12 12 12 12 12 12 12 12 12 11 11 11 11 11 11 11 11 11 11 11 11
12 12 12 12 12 12 12 12 12 12 12 12 12 12 12 12 12 12 12 12 12 12 12 12 12 12 12 12 12 12 11 11 11 11 11 11 11 11 11 11 11 11 11
12 12 12 12 12 12 12 12 12 12 11 11 11 11 11 11 11 11 11 11 11 11 11 11 11 11 11 11 11 11 11 11 11 11 11 11 11 11 10 10 10 10 10
12 12 12 12 12 12 12 11 11 11 11 11 11 11 11 11 11 11 11 11 11 11 11 11 11 11 11 11 11 11 11 11 11 10 10 10 10 10 10 10 10 10 10
12 12 12 12 11 11 11 11 11 11 11 11 11 11 11 11 11 11 11 11 11 11 11 11 11 11 11 11 11 11 11 10 10 10 10 10 10 10 10 9 10 10 10
11 11 11 11 11 11 11 11 11 11 11 11 11 10 10 10 10 10 10 10 10 10 10 10 10 10 10 10 10 10 10 10 10 10 10 10 9 9 9 9 9 9 9
11 11 11 11 11 11 11 11 11 11 10 10 10 10 10 10 10 10 10 10 10 10 10 10 10 10 10 10 10 10 10 10 10 10 9 9 9 9 9 9 9 9 9
11 11 11 11 11 11 11 10 10 10 10 10 10 9 9 9 9 9 9 9 9 9 9 9 9 9 9 10 10 10 10 9 9 9 9 9 9 8 8 8 8 8 8
11 11 11 11 11 11 11 10 10 10 10 10 10 10 9 9 8 8 8 9 9 9 9 9 9 9 9 9 9 9 9 9 9 9 9 8 8 8 8 8 8 8 8
10 10 10 10 10 10 10 10 10 10 10 10 9 9 9 9 9 8 8 8 8 8 8 8 8 9 9 9 9 9 9 9 8 8 8 8 8 8 8 8 8 7 7
10 10 10 10 10 10 10 10 10 10 10 10 9 9 9 9 9 9 8 8 8 8 8 8 8 8 8 8 8 8 8 8 8 8 8 8 7 8 7 7 7 7 7
9 9 9 9 10 10 10 10 9 9 9 9 9 9 9 9 9 8 8 7 7 7 8 8 8 8 8 8 8 8 8 7 7 7 7 7 7 7 7 7 7 7 7
9 9 9 9 9 9 9 9 9 9 9 9 9 9 9 8 8 8 8 7 7 7 7 7 7 7 7 7 7 7 7 7 7 7 7 7 7 7 7 7 7 7 6
8 8 8 8 9 9 9 9 9 9 8 8 8 8 8 8 8 8 8 8 7 7 7 7 7 7 7 7 7 7 7 7 7 7 6 6 6 6 6 6 6 6 6
8 8 8 8 8 8 8 8 8 8 8 8 8 8 8 8 8 7 7 7 7 6 6 6 6 7 6 6 6 6 6 6 6 6 6 6 6 6 6 6 6 6 6
7 7 7 7 8 8 8 8 8 8 7 7 7 7 7 7 7 7 7 7 6 6 6 6 6 6 6 6 6 6 6 6 6 6 6 6 6 5 5 5 5 5 5
7 7 7 7 7 7 7 7 7 7 7 7 7 7 7 7 7 6 6 6 6 6 6 6 6 6 6 6 6 5 5 5 5 5 5 5 5 5 5 5 5 5 5
6 6 7 7 7 7 7 7 7 7 7 7 7 7 6 6 6 6 6 6 6 6 5 5 5 5 5 5 5 5 5 5 5 5 5 5 5 5 5 4 4 4 4
6 6 6 6 6 6 6 6 6 6 6 6 6 6 6 6 6 5 5 5 5 5 5 5 5 5 5 5 5 5 4 4 4 4 4 4 4 4 4 4 4 4 4
5 5 5 5 6 6 6 6 6 6 6 6 6 5 5 5 5 5 5 5 5 5 4 4 4 4 4 4 4 4 4 4 4 4 4 4 3 4 4 4 4 3 3
4 4 4 5 5 5 5 5 5 5 5 5 5 5 5 5 5 4 4 4 4 4 4 4 4 4 4 4 4 4 4 4 4 3 3 3 3 3 3 3 3 3 3
3 3 4 4 4 4 4 4 5 5 5 5 5 4 4 4 4 4 4 4 4 4 4 4 3 3 4 4 3 3 3 3 3 3 3 3 3 3 3 3 3 3 2
3 3 3 3 4 4 4 4 4 4 4 4 4 4 4 4 3 3 3 3 3 3 3 3 3 3 3 3 3 3 3 2 2 2 2 2 2 2 2 2 2 2 2
2 2 2 3 3 3 3 3 3 3 3 3 3 3 3 3 3 3 3 3 3 3 3 3 3 3 2 2 2 2 2 1 2 2 1 1 2 2 2 2 2 2 1
2 2 2 2 2 2 3 3 2 2 2 2 2 2 2 3 3 2 2 2 2 2 2 2 2 2 2 2 1 1 1 1 1 1 1 1 1 1 1 1 1 1 1
1 1 1 1 2 2 2 2 2 2 2 2 2 2 2 2 2 2 2 2 2 2 2 2 2 2 2 1 1 1 0 0 0 0 0 0 0 -0 0 1 1 1 1
Wind_Speed
5 6 6 7 6 7 7 5 5 6 6 6 6 7 7 8 9 10 10 10 9 8 8 7 7 7 7 7 7 7 7 7 6 7 6 7 7 7 7 7 8 8 9
6 5 5 5 6 6 6 6 6 6 5 6 6 7 8 8 9 9 10 9 9 8 7 7 6 6 6 6 6 6 6 6 5 6 5 5 5 5 6 6 6 7 7
8 6 5 5 6 7 7 7 6 7 5 6 6 7 8 9 9 9 9 8 8 8 8 7 7 7 6 6 6 6 6 5 5 5 4 4 4 4 5 5 5 6 6
9 7 5 4 7 8 6 4 4 5 4 4 4 4 6 7 8 9 9 8 8 8 8 8 7 7 6 6 6 6 6 6 6 5 5 4 4 4 4 4 4 4 4
8 8 6 6 8 7 5 4 4 4 5 5 5 4 5 5 6 8 8 9 9 9 8 8 8 7 7 7 6 6 6 5 4 4 4 4 4 4 3 3 3 3 3
7 8 7 7 7 5 4 4 5 5 5 5 6 5 4 4 6 6 7 8 9 9 8 8 7 7 7 7 7 7 6 5 4 4 4 4 4 4 3 3 3 3 3
8 7 5 6 6 5 5 6 5 6 4 4 4 3 3 4 5 4 6 6 6 7 8 7 6 6 6 7 7 7 6 6 5 4 4 4 3 3 4 4 4 4 5
8 7 6 5 5 5 5 6 6 4 3 2 3 3 2 2 3 3 3 4 4 5 6 6 6 7 6 6 6 7 6 5 4 4 4 4 3 3 3 3 4 4 4
7 7 7 6 6 5 5 5 5 5 3 1 2 3 3 2 1 1 2 2 2 3 4 5 5 6 6 6 6 6 6 5 5 4 4 4 4 3 3 3 4 4 4
6 6 7 7 6 5 6 5 4 4 4 3 1 2 1 3 3 1 0 1 2 2 2 3 4 4 5 5 5 5 5 5 4 4 4 3 4 4 3 3 3 4 4
5 6 6 6 6 5 6 5 4 4 3 3 2 1 1 2 2 2 1 1 0 1 1 2 3 3 4 5 5 5 5 4 4 4 4 4 4 4 4 3 3 3 3
4 4 5 5 5 5 6 5 5 5 3 3 3 2 2 2 1 2 2 2 1 1 0 1 2 3 4 5 4 3 3 3 3 3 3 4 4 5 5 4 3 3 3
3 5 4 4 4 5 6 5 5 5 4 4 3 2 2 1 2 2 2 2 1 1 1 0 1 3 3 3 2 2 1 1 2 2 3 3 4 4 4 5 4 4 4
4 5 5 5 5 6 6 5 4 4 4 4 4 3 2 1 1 2 2 2 1 1 1 2 1 3 2 2 1 1 1 1 1 2 2 3 3 4 4 4 4 4 4
3 5 5 5 5 6 5 5 4 4 4 4 4 3 2 1 1 1 2 2 3 2 2 2 1 1 2 2 1 1 1 1 2 3 3 3 3 4 3 3 3 4 5
5 5 5 5 5 5 5 5 4 4 4 4 3 4 3 2 2 1 1 1 1 3 2 2 1 1 2 1 2 2 2 3 3 4 4 4 4 4 4 3 4 4 5
6 6 6 5 5 5 5 5 4 5 5 4 3 4 4 3 2 2 2 1 1 1 2 1 1 1 1 1 2 3 3 4 4 5 6 6 6 5 5 5 5 6 6
5 6 6 6 5 5 5 5 5 4 5 5 4 4 3 3 3 2 2 2 2 1 2 2 1 1 1 2 2 2 3 4 4 5 6 6 7 7 7 7 7 7 8
5 5 5 6 6 5 5 5 5 5 5 5 5 4 4 4 4 2 3 2 2 1 1 2 2 1 1 1 1 2 3 4 4 5 6 7 7 8 9 9 9 9 9
5 5 5 5 5 5 5 4 4 4 4 4 4 4 4 4 5 4 4 3 3 2 2 2 2 1 1 1 1 2 3 3 3 5 6 7 8 8 9 9 9 9 9
5 4 5 5 4 5 5 5 5 4 4 4 3 3 3 3 4 4 3 4 4 3 2 2 2 2 2 2 2 2 3 3 3 3 3 5 6 7 8 9 10 11 11
4 4 4 5 5 4 6 6 5 4 4 4 4 3 3 4 4 4 3 3 4 4 4 4 3 4 4 3 2 2 2 2 3 2 2 4 5 4 7 8 10 11 11
4 4 4 4 4 5 7 7 6 4 4 4 4 3 3 3 4 3 3 2 2 3 4 4 4 5 4 3 3 3 3 3 5 3 2 5 3 5 7 9 10 11 11
4 4 4 4 4 4 6 7 7 4 3 3 3 4 4 4 4 4 3 2 2 2 4 4 4 4 3 2 3 4 4 3 3 2 2 4 3 4 6 8 9 10 11
3 3 3 4 4 4 6 7 6 4 3 3 3 3 3 3 5 5 3 3 2 2 3 4 4 3 3 3 2 1 1 2 4 3 1 2 3 3 3 4 7 9 9
3 3 3 3 4 4 5 6 7 4 4 3 2 2 3 4 5 5 4 4 4 4 3 2 2 3 3 4 4 2 2 3 3 3 2 1 2 2 3 3 3 6 8
Wind_Direction
131 131 135 136 135 134 131 130 120 109 105 105 98 89 82 89 95 98 96 90 90 96 98 104 103 101 108 105 98 95 94 91 87 86 85 80 77 75 71 66 59 56 57
130 131 127 121 118 120 122 119 111 102 96 95 86 82 79 80 84 93 99 94 85 88 92 96 98 95 97 108 103 100 100 95 90 91 86 85 78 77 71 63 61 57 56
128 124 118 115 116 119 114 108 106 98 91 84 71 69 73 79 79 78 86 98 95 84 86 86 89 90 87 92 97 99 98 95 91 90 79 76 75 75 70 61 61 55 54
129 122 118 116 119 117 113 107 105 100 93 86 78 67 66 68 73 76 75 79 88 88 86 85 82 83 83 87 91 93 92 90 90 85 77 71 70 66 67 63 63 54 51
131 123 118 118 123 118 112 114 104 109 104 94 85 72 63 62 68 73 72 72 78 84 85 87 82 77 78 77 77 80 80 81 79 82 69 66 71 66 64 61 60 53 54
131 122 121 125 123 120 119 118 114 106 110 109 92 74 61 56 62 65 67 68 68 73 76 78 80 74 76 76 69 65 64 64 62 61 64 63 66 66 61 51 42 42 47
130 121 126 128 127 134 135 127 119 115 111 111 95 79 54 59 60 61 67 69 69 73 73 70 74 75 75 71 69 63 55 50 49 52 60 57 62 65 55 50 44 45 44
130 130 129 137 134 133 130 126 122 120 122 116 118 120 104 54 37 52 64 68 63 75 76 72 74 75 81 80 70 61 49 41 42 53 52 44 47 56 49 42 34 32 30
130 135 137 135 134 135 140 135 134 130 142 134 104 118 135 165 128 44 54 67 67 62 73 77 73 73 80 81 74 61 48 39 38 47 56 51 46 47 45 33 22 23 27
131 133 139 137 136 134 140 143 132 135 139 146 112 58 98 126 133 128 36 71 88 82 71 83 80 73 75 81 75 67 52 45 45 41 40 36 34 32 28 26 18 12 15
129 135 138 139 140 138 143 146 137 136 135 143 142 128 79 68 95 134 168 209 20 48 76 86 92 81 79 84 75 62 53 46 43 31 24 17 16 13 7 353 355 355 359
138 137 141 135 139 141 149 151 147 147 142 135 132 124 127 126 154 135 152 168 193 247 129 76 93 95 90 85 76 59 51 42 29 12 4 5 7 3 355 344 333 333 336
150 160 143 140 139 139 146 143 145 152 148 142 136 130 114 111 121 123 131 153 177 229 211 248 111 102 93 94 69 58 60 39 12 358 352 355 357 352 343 341 336 323 313
157 154 147 144 139 138 138 139 143 150 147 145 140 134 121 110 98 117 140 143 151 237 229 232 174 134 122 125 101 129 93 42 346 336 328 328 334 337 337 341 342 338 329
146 143 146 147 141 138 138 138 147 150 148 152 151 149 142 137 113 106 120 144 156 188 236 227 214 210 163 149 189 187 227 273 287 295 299 303 307 311 321 330 333 329 325
148 150 150 152 145 141 142 139 146 150 147 154 153 154 150 144 136 122 129 143 150 171 212 226 218 204 169 200 241 238 242 265 264 270 279 284 289 294 295 298 303 301 306
149 157 159 155 151 148 147 149 151 155 156 156 154 163 170 161 156 161 151 142 150 152 196 253 243 171 165 215 263 264 264 261 258 265 269 272 275 278 275 278 282 286 293
152 157 156 155 155 155 155 155 160 161 163 165 166 165 175 166 165 170 165 173 182 181 184 228 260 234 221 222 235 276 275 270 264 267 268 272 271 273 275 278 279 281 284
151 153 154 156 159 162 162 163 167 168 170 171 169 174 182 174 178 180 180 184 190 192 188 198 245 255 255 249 253 287 281 271 269 273 269 268 269 273 275 276 278 278 281
149 153 158 159 161 161 159 164 167 167 166 172 176 181 187 188 190 188 192 193 186 187 188 191 225 246 252 253 210 255 281 267 266 278 267 268 273 275 275 275 275 275 276
153 154 154 155 157 163 165 164 168 169 170 171 174 179 183 189 188 190 197 197 190 192 194 208 224 239 238 228 235 233 261 277 268 258 260 264 266 269 273 274 273 272 273
149 149 160 160 163 170 166 166 166 172 171 172 174 178 186 196 192 190 200 200 198 199 204 212 226 230 238 237 232 235 252 276 278 264 256 273 258 258 263 267 271 272 273
152 155 163 161 166 170 168 170 168 169 174 180 181 186 195 200 193 195 195 200 223 232 220 209 214 223 227 227 219 232 245 258 261 269 270 276 269 259 264 268 271 272 273
155 161 162 162 162 169 167 167 167 162 162 175 186 194 196 196 199 189 183 188 217 252 247 231 217 227 228 218 211 222 233 260 274 272 225 260 273 269 277 269 272 275 277
154 160 162 162 167 174 171 168 164 165 161 170 184 193 197 199 201 188 181 192 218 252 254 224 220 232 251 265 248 187 232 269 276 274 238 241 278 291 280 266 268 272 277
159 156 155 165 171 172 176 171 163 166 167 171 176 194 207 205 199 188 192 197 218 239 236 231 231 259 268 272 259 223 211 238 265 269 249 239 279 320 299 281 268 277 283
Height
1538 1540 1542 1544 1545 1547 1549 1551 1553 1555 1557 1559 1560 1562 1563 1564 1565 1566 1567 1568 1569 1570 1571 1571 1572 1572 1573 1573 1573 1574 1574 1574 1574 1574 1574 1574 1573 1573 1573 1572 1572 1572 1571
1536 1539 1541 1543 1545 1547 1549 1551 1553 1555 1557 1559 1560 1561 1563 1564 1564 1565 1567 1568 1569 1570 1571 1571 1572 1572 1573 1573 1573 1573 1573 1574 1574 1574 1574 1574 1573 1573 1573 1572 1572 1572 1571
1535 1537 1539 1541 1544 1546 1548 1550 1552 1554 1556 1558 1559 1561 1562 1563 1564 1565 1566 1568 1569 1570 1570 1571 1572 1572 1573 1573 1573 1573 1573 1573 1573 1573 1573 1573 1573 1572 1572 1572 1571 1571 1571
1533 1536 1538 1540 1542 1545 1547 1549 1551 1553 1555 1557 1559 1560 1562 1563 1564 1566 1567 1568 1568 1569 1570 1571 1571 1572 1572 1572 1572 1573 1572 1573 1573 1572 1572 1572 1572 1572 1571 1571 1571 1570 1570
1531 1534 1536 1539 1541 1544 1546 1548 1550 1552 1554 1556 1558 1559 1561 1562 1564 1565 1566 1567 1568 1568 1569 1570 1570 1571 1571 1571 1572 1572 1572 1572 1572 1571 1571 1571 1571 1571 1570 1570 1569 1569 1569
1529 1532 1534 1537 1540 1542 1544 1547 1549 1551 1553 1554 1556 1558 1560 1562 1563 1564 1565 1566 1567 1568 1568 1569 1569 1569 1570 1570 1571 1571 1571 1571 1571 1570 1570 1570 1570 1569 1569 1569 1568 1568 1568
1527 1530 1533 1535 1538 1541 1543 1545 1547 1549 1551 1553 1555 1557 1560 1561 1562 1563 1564 1565 1566 1566 1567 1567 1568 1568 1569 1569 1569 1570 1570 1570 1569 1569 1569 1569 1569 1568 1568 1568 1567 1567 1566
1526 1528 1531 1533 1536 1539 1541 1544 1546 1548 1550 1552 1554 1556 1558 1561 1561 1562 1563 1564 1565 1565 1566 1566 1567 1567 1567 1568 1568 1568 1568 1568 1568 1568 1567 1567 1567 1567 1566 1566 1566 1565 1565
1523 1527 1530 1532 1534 1537 1539 1542 1544 1546 1548 1551 1553 1555 1556 1557 1560 1561 1562 1563 1564 1564 1565 1565 1565 1566 1566 1566 1566 1566 1566 1566 1566 1566 1565 1565 1565 1565 1564 1564 1563 1563 1562
1521 1524 1528 1530 1533 1535 1538 1540 1543 1545 1547 1549 1551 1553 1555 1556 1557 1559 1561 1561 1562 1563 1563 1564 1564 1564 1564 1564 1564 1564 1564 1564 1564 1564 1564 1563 1563 1562 1562 1561 1561 1561 1560
1518 1522 1525 1528 1530 1533 1535 1538 1540 1543 1545 1547 1549 1551 1552 1554 1555 1556 1557 1559 1560 1561 1561 1562 1562 1562 1562 1563 1563 1563 1563 1562 1562 1562 1562 1561 1561 1560 1559 1559 1558 1558 1558
1515 1519 1522 1525 1527 1530 1533 1536 1538 1540 1542 1545 1547 1548 1550 1551 1553 1554 1555 1556 1557 1559 1559 1560 1560 1560 1561 1561 1561 1561 1560 1560 1560 1560 1559 1559 1558 1558 1557 1556 1556 1555 1555
1511 1515 1519 1522 1524 1527 1530 1533 1535 1538 1540 1542 1544 1546 1548 1549 1551 1552 1553 1553 1555 1556 1557 1557 1558 1558 1558 1558 1558 1558 1558 1558 1557 1557 1557 1556 1556 1555 1554 1553 1553 1552 1552
1508 1511 1515 1518 1521 1524 1527 1530 1532 1535 1537 1539 1541 1543 1545 1546 1548 1549 1550 1551 1552 1553 1554 1555 1555 1555 1555 1555 1556 1556 1555 1555 1555 1554 1554 1553 1553 1552 1552 1551 1550 1549 1549
1505 1508 1511 1514 1518 1521 1524 1527 1529 1531 1534 1536 1538 1540 1542 1543 1545 1546 1548 1549 1550 1550 1551 1551 1552 1553 1553 1553 1553 1553 1553 1552 1552 1551 1551 1550 1550 1549 1548 1548 1547 1547 1546
1502 1505 1508 1511 1514 1517 1520 1523 1526 1528 1530 1533 1535 1537 1538 1540 1542 1543 1544 1546 1547 1548 1547 1548 1549 1550 1550 1550 1550 1550 1549 1549 1549 1548 1548 1547 1546 1546 1545 1544 1544 1543 1542
1498 1501 1504 1507 1510 1513 1517 1520 1522 1525 1527 1529 1531 1533 1535 1537 1538 1540 1541 1542 1543 1544 1544 1544 1546 1546 1547 1547 1547 1547 1546 1546 1545 1545 1544 1544 1543 1542 1542 1541 1540 1540 1539
1495 1498 1501 1504 1507 1510 1513 1516 1518 1521 1523 1525 1528 1530 1532 1533 1535 1536 1537 1539 1540 1541 1542 1541 1541 1542 1543 1543 1543 1543 1543 1542 1542 1541 1541 1540 1540 1539 1538 1537 1536 1536 1535
1492 1494 1497 1500 1503 1506 1509 1512 1515 1517 1520 1522 1524 1526 1528 1530 1531 1532 1534 1535 1536 1537 1538 1538 1538 1538 1539 1539 1539 1539 1539 1538 1538 1537 1537 1536 1536 1535 1534 1533 1532 1532 1531
1488 1491 1494 1497 1500 1503 1506 1508 1511 1514 1516 1518 1520 1522 1524 1526 1527 1529 1530 1531 1532 1533 1534 1534 1534 1534 1535 1535 1535 1535 1534 1534 1533 1533 1533 1532 1531 1531 1530 1529 1528 1527 1527
1485 1488 1491 1494 1497 1499 1502 1505 1508 1510 1512 1514 1516 1519 1520 1522 1523 1525 1526 1527 1528 1529 1529 1530 1530 1530 1530 1531 1531 1531 1530 1529 1528 1528 1528 1527 1527 1526 1525 1525 1524 1523 1522
1482 1485 1488 1490 1493 1496 1498 1501 1504 1506 1508 1510 1512 1514 1516 1518 1519 1521 1522 1523 1524 1525 1525 1526 1526 1526 1526 1527 1527 1526 1526 1525 1523 1524 1523 1522 1522 1521 1520 1520 1519 1518 1517
1479 1482 1485 1487 1490 1492 1495 1498 1500 1503 1505 1507 1509 1511 1512 1514 1515 1516 1517 1518 1519 1520 1521 1522 1521 1522 1522 1523 1523 1522 1522 1521 1520 1519 1518 1517 1517 1516 1516 1515 1514 1513 1512
1476 1479 1481 1484 1486 1489 1492 1494 1497 1499 1501 1503 1505 1507 1508 1510 1511 1512 1513 1513 1514 1515 1516 1516 1517 1518 1518 1519 1519 1518 1517 1516 1515 1515 1514 1512 1511 1510 1510 1509 1508 1508 1507
1474 1476 1479 1481 1483 1486 1488 1491 1493 1495 1497 1499 1501 1503 1504 1506 1507 1508 1509 1509 1509 1510 1511 1512 1513 1513 1514 1514 1514 1514 1512 1511 1509 1509 1509 1508 1506 1504 1503 1503 1503 1502 1501
1471 1473 1476 1479 1481 1483 1485 1488 1490 1491 1493 1495 1497 1499 1500 1501 1502 1503 1504 1504 1504 1505 1506 1507 1508 1508 1509 1509 1509 1509 1508 1507 1505 1504 1503 1503 1501 1500 1497 1496 1496 1496 1495